This demonstration page uses our WeatherBlox Daily Observations layout. Learn more.

39.92423, -83.80882

Hourly Observations for April 21, 2015

Temp ( °F °C ) Dew Point ( °F °C ) Humidity (%) Winds ( mph kmh ) Pressure ( in mb ) Visibility ( mi km ) Precip ( " mm )
12:56 am 00:56 Cloudy 46 7.7 38 3.3 74 74 WSW 10 17 29.76 1008 8 12.87472 0 0
1:56 am 01:56 Partly Cloudy 45 7.2 37 2.7 73 73 WSW 14 22 29.77 1008 8 12.87472 0 0
2:56 am 02:56 Mostly Cloudy 45 7.2 37 2.7 73 73 WSW 13 20 29.77 1008 8 12.87472 0 0
3:56 am 03:56 Mostly Cloudy 44 6.6 37 2.7 76 76 SW 14 22 29.77 1008 8 12.87472 0 0
4:56 am 04:56 Mostly Clear 44 6.6 36 2.2 74 74 SW 12 19 29.77 1008 8 12.87472 0 0
5:56 am 05:56 Clear 42 5.5 34 1.1 74 74 SSW 9 15 29.77 1008 8 12.87472 0 0
6:56 am 06:56 Sunny 42 5.5 35 1.6 76 76 SSW 13 20 29.77 1008 7 11.26538 0 0
7:56 am 07:56 Hazy 43 6.1 36 2.2 76 76 SSW 12 19 29.77 1008 6 9.65604 0 0
8:56 am 08:56 Hazy 47 8.3 37 2.7 68 68 SW 16 26 29.78 1008 6 9.65604 0 0
9:56 am 09:56 Hazy 50 10 34 1.1 54 54 SW 21 33 29.77 1008 6 9.65604 0 0
10:56 am 10:56 Sunny 53 11.6 35 1.6 51 51 SW 20 31 29.76 1008 7 11.26538 0 0
11:56 am 11:56 Hazy 56 13.3 31 -0.5 39 39 WSW 22 35 29.76 1008 6 9.65604 0 0
12:56 pm 12:56 Partly Cloudy 56 13.3 24 -4.4 29 29 W 29 46 29.74 1007 7 11.26538 0 0
1:56 pm 13:56 Hazy 58 14.4 29 -1.6 33 33 WSW 29 46 29.73 1007 6 9.65604 0 0
2:56 pm 14:56 Sunny 58 14.4 26 -3.3 29 29 WSW 29 46 29.74 1007 8 12.87472 0 0
3:56 pm 15:56 Hazy 61 16.1 26 -3.3 26 26 WSW 32 52 29.72 1006 6 9.65604 0 0
4:56 pm 16:56 Hazy 61 16.1 27 -2.7 28 28 WSW 28 44 29.71 1006 6 9.65604 0 0
5:56 pm 17:56 Hazy 61 16.1 25 -3.8 25 25 WSW 23 37 29.72 1006 6 9.65604 0 0
6:56 pm 18:56 Mostly Sunny 60 15.5 25 -3.8 26 26 WSW 21 33 29.72 1006 7 11.26538 0 0
7:56 pm 19:56 Mostly Sunny 57 13.8 27 -2.7 32 32 WSW 16 26 29.72 1007 7 11.26538 0 0
8:56 pm 20:56 Clear 53 11.6 29 -1.6 40 40 WSW 9 15 29.72 1007 8 12.87472 0 0
9:56 pm 21:56 Partly Cloudy 50 10 31 -0.5 48 48 SW 8 13 29.72 1007 8 12.87472 0 0
10:56 pm 22:56 Partly Cloudy 53 11.6 31 -0.5 43 43 SW 10 17 29.72 1006 8 12.87472 0 0
11:56 pm 23:56 Partly Cloudy 53 11.6 35 1.6 51 51 SW 14 22 29.71 1006 8 12.87472 0 0

Powered by AerisWeather